Location: Mount Lemmon
(32.4432°N, 110.7577°W)
Time: 18:05:22
(UTC-07:00)

Hubble Space Telescope - Visible Passes

Search period start: 17 November 2017 00:00
Search period end: 27 November 2017 00:00
Orbit: 537 x 541 km, 28.5° (Epoch: 17 November)

Date Brightness Start Highest point End Pass type
(mag) Time Alt. Az. Time Alt. Az. Time Alt. Az.
17 Nov 3.8 04:13:30 11° SE 04:13:30 11° SE 04:14:00 10° ESE visible
17 Nov 2.1 05:48:53 11° SW 05:52:32 35° SSE 05:56:18 10° ESE visible
18 Nov 4.0 04:04:12 10° ESE 04:04:12 10° ESE 04:04:15 10° ESE visible
18 Nov 1.8 05:39:35 17° SW 05:42:17 39° S 05:46:08 10° E visible
19 Nov 1.6 05:30:12 26° SW 05:32:02 43° S 05:35:57 10° E visible
20 Nov 1.4 05:20:44 36° SW 05:21:48 46° S 05:25:45 10° ESE visible
21 Nov 1.3 05:11:14 46° SSW 05:11:34 48° S 05:15:32 10° ESE visible
22 Nov 1.4 05:01:41 47° SSE 05:01:41 47° SSE 05:05:18 10° ESE visible
23 Nov 1.9 04:52:07 38° SE 04:52:07 38° SE 04:55:03 10° ESE visible
23 Nov 2.2 06:28:25 10° WSW 06:32:01 29° SSW 06:35:37 10° SE visible
24 Nov 2.5 04:42:32 29° SE 04:42:32 29° SE 04:44:48 10° ESE visible
24 Nov 2.4 06:18:19 10° WSW 06:21:44 25° SSW 06:25:09 10° SE visible
25 Nov 3.1 04:32:57 21° SE 04:32:57 21° SE 04:34:31 10° ESE visible
25 Nov 2.6 06:08:19 10° WSW 06:11:27 21° SSW 06:14:36 10° SSE visible
26 Nov 3.6 04:23:23 15° SE 04:23:23 15° SE 04:24:12 10° ESE visible
26 Nov 2.8 05:58:45 11° WSW 06:01:09 18° SSW 06:03:55 10° SSE visible
